TimeEDT,TemperatureF,Dew PointF,Humidity,Sea Level PressureIn,VisibilityMPH,Wind Direction,Wind SpeedMPH,Gust SpeedMPH,PrecipitationIn,Events,Conditions,WindDirDegrees,DateUTC
12:56 AM,64.0,55.9,75,29.95,10.0,ESE,15.0,-,N/A,,Overcast,120,2012-10-19 04:56:00
1:46 AM,64.4,60.8,88,29.94,6.0,SE,17.3,24.2,0.01,Rain,Light Rain,130,2012-10-19 05:46:00
1:52 AM,64.4,60.8,88,29.95,6.0,SE,16.1,23.0,0.02,Rain,Light Rain,140,2012-10-19 05:52:00
1:56 AM,64.0,61.0,90,29.95,7.0,SSE,16.1,24.2,0.03,Rain,Light Rain,150,2012-10-19 05:56:00
2:52 AM,62.6,60.8,94,29.95,1.5,South,13.8,20.7,0.13,Rain,Heavy Rain,180,2012-10-19 06:52:00
2:56 AM,62.1,60.1,93,29.95,2.0,South,15.0,20.7,0.15,Rain,Rain,180,2012-10-19 06:56:00
3:25 AM,62.6,59.0,88,29.93,3.0,SSE,10.4,-,0.14,Rain,Light Rain,150,2012-10-19 07:25:00
3:56 AM,62.1,59.0,90,29.92,3.0,SE,10.4,-,0.20,Rain,Light Rain,140,2012-10-19 07:56:00
4:20 AM,62.6,59.0,88,29.92,2.5,SSE,11.5,18.4,0.08,Rain,Light Rain,160,2012-10-19 08:20:00
4:56 AM,62.1,59.0,90,29.91,2.5,SE,12.7,-,0.11,Rain,Light Rain,140,2012-10-19 08:56:00
5:03 AM,62.6,59.0,88,29.91,4.0,SE,13.8,-,0.00,Rain,Light Rain,140,2012-10-19 09:03:00
5:31 AM,62.6,59.0,88,29.90,6.0,ESE,11.5,-,0.01,Rain,Light Rain,120,2012-10-19 09:31:00
5:56 AM,62.1,59.0,90,29.89,7.0,ESE,10.4,-,0.01,Rain,Light Rain,110,2012-10-19 09:56:00
6:56 AM,63.0,61.0,93,29.88,7.0,ESE,12.7,-,0.00,Rain,Light Rain,110,2012-10-19 10:56:00
7:12 AM,64.4,60.8,88,29.88,2.0,ESE,13.8,-,0.01,Rain,Light Rain,120,2012-10-19 11:12:00
7:56 AM,64.0,62.1,93,29.88,2.0,SE,13.8,-,0.03,Rain,Light Rain,130,2012-10-19 11:56:00
8:19 AM,64.4,62.6,94,29.88,2.0,SE,16.1,-,0.05,Rain,Light Rain,130,2012-10-19 12:19:00
8:44 AM,64.4,62.6,94,29.86,1.0,SE,17.3,27.6,0.09,Rain,Rain,130,2012-10-19 12:44:00
8:56 AM,64.9,63.0,93,29.84,2.0,ESE,24.2,32.2,0.15,Rain,Light Rain,120,2012-10-19 12:56:00
9:53 AM,64.4,62.6,94,29.85,4.0,SE,15.0,25.3,0.01,Rain,Light Rain,130,2012-10-19 13:53:00
9:56 AM,64.9,63.0,93,29.85,4.0,SE,15.0,23.0,0.01,Rain,Light Rain,130,2012-10-19 13:56:00
10:40 AM,64.4,62.6,94,29.84,1.5,SE,11.5,21.9,0.00,Rain,Light Rain,140,2012-10-19 14:40:00
10:56 AM,64.9,63.0,93,29.83,2.0,SE,13.8,-,0.01,Rain,Light Rain,140,2012-10-19 14:56:00
11:32 AM,64.4,62.6,94,29.82,5.0,SE,12.7,20.7,0.03,,Overcast,140,2012-10-19 15:32:00
11:56 AM,66.0,63.0,90,29.81,6.0,SSE,16.1,24.2,0.03,,Overcast,150,2012-10-19 15:56:00
12:56 PM,66.0,62.1,87,29.79,6.0,SSE,17.3,23.0,N/A,,Overcast,150,2012-10-19 16:56:00
1:56 PM,66.0,62.1,87,29.75,6.0,SE,13.8,19.6,N/A,,Overcast,140,2012-10-19 17:56:00
3:22 PM,66.2,62.6,88,29.73,3.0,SE,9.2,20.7,0.00,Rain,Light Rain,140,2012-10-19 19:22:00
3:56 PM,66.0,64.0,93,29.72,3.0,SSE,10.4,-,0.03,Rain,Light Rain,150,2012-10-19 19:56:00
5:56 PM,66.0,64.0,93,29.69,2.0,South,10.4,16.1,N/A,,Overcast,180,2012-10-19 21:56:00
6:56 PM,64.9,63.0,93,29.70,3.0,South,9.2,-,N/A,,Overcast,190,2012-10-19 22:56:00
7:56 PM,64.9,63.0,93,29.70,3.0,South,9.2,-,N/A,,Overcast,180,2012-10-19 23:56:00
8:33 PM,64.4,62.6,94,29.70,2.0,South,8.1,-,N/A,,Overcast,180,2012-10-20 00:33:00
8:56 PM,64.9,63.0,93,29.70,2.0,South,8.1,-,N/A,,Overcast,170,2012-10-20 00:56:00
9:18 PM,64.4,62.6,94,29.70,0.5,South,8.1,-,N/A,Fog,Fog,170,2012-10-20 01:18:00
9:25 PM,64.4,62.6,94,29.70,0.2,South,9.2,-,N/A,Fog,Fog,180,2012-10-20 01:25:00
10:56 PM,64.0,63.0,96,29.70,1.0,SSE,11.5,-,N/A,,Overcast,160,2012-10-20 02:56:00
11:14 PM,64.4,62.6,94,29.70,3.0,SSE,10.4,-,N/A,,Overcast,160,2012-10-20 03:14:00
11:56 PM,64.0,63.0,96,29.71,6.0,South,10.4,-,N/A,,Mostly Cloudy,170,2012-10-20 03:56:00